Temp
22 22 20 18 17 17 16 16 16 16 16 16 16 16 16 16 16 17 17 18 17 17 17 17 17 17 17 17 17 17 17 18 17 17 18 18 17 17 17 17 18 17 17 17 17 17 17 17 17 17 17 17 17 17 16 16 16 16 16 16 16 16 16 16 15 15 15 15 15 15 15 15 15 15 15 15 15 15 15 15 15 15 16 16 16
20 21 19 17 17 16 16 16 16 16 16 16 16 16 16 16 16 17 18 18 18 18 17 17 17 18 18 18 18 17 17 17 17 18 18 18 18 18 18 18 18 18 17 17 17 17 17 16 16 16 16 16 16 16 16 16 16 16 16 16 16 16 16 16 15 15 15 15 15 15 15 15 15 15 15 15 15 15 15 16 16 16 16 16 16
17 18 17 16 16 16 16 16 16 16 16 16 16 16 16 16 16 17 18 18 18 18 18 18 18 18 18 18 18 18 18 18 18 18 18 18 18 18 18 18 18 18 18 17 17 17 17 17 16 16 16 16 16 16 16 16 16 16 15 15 15 15 15 15 15 15 15 15 15 15 15 15 15 15 15 15 15 15 15 16 16 16 16 16 16
17 17 16 16 15 15 16 16 17 17 16 16 16 16 16 16 17 18 18 18 18 18 18 18 18 18 18 18 18 18 18 18 18 18 18 19 19 19 18 18 18 18 18 17 17 17 17 17 17 16 16 15 16 16 16 16 16 16 16 15 15 15 15 16 15 15 15 16 16 16 15 15 15 15 15 16 16 16 16 16 16 16 16 16 16
17 16 16 15 15 15 16 16 17 17 16 17 17 16 16 17 17 18 18 18 18 18 18 18 18 18 18 18 18 18 18 18 18 18 18 19 19 19 19 18 18 18 18 17 17 17 17 17 17 17 16 15 16 16 16 16 16 16 16 16 16 16 16 16 16 15 15 15 15 16 16 16 16 15 15 15 16 16 16 16 16 16 17 17 17
17 16 16 15 15 15 15 16 17 17 17 17 17 16 16 17 18 18 18 18 18 18 18 18 18 18 18 18 18 18 18 18 18 18 18 18 18 19 19 18 18 18 18 18 17 17 17 17 17 17 16 16 16 16 16 16 16 16 16 16 16 16 16 16 15 15 15 15 15 15 16 16 16 16 15 15 15 16 16 16 17 16 16 17 17
17 16 16 16 16 15 16 17 17 17 17 17 16 16 17 18 18 18 18 18 18 18 18 18 18 18 18 18 18 18 18 18 18 18 18 18 18 18 18 18 18 18 18 18 17 17 17 17 17 17 17 16 16 16 16 16 16 16 16 16 16 16 15 15 15 15 15 15 15 15 15 15 16 16 16 15 15 15 15 16 16 16 17 17 17
17 16 16 16 16 16 17 18 18 17 17 17 16 17 17 18 18 18 18 18 18 18 18 18 18 18 18 18 18 18 18 18 18 18 18 18 18 18 18 18 18 18 18 18 17 17 17 17 17 17 17 16 16 16 16 16 16 16 16 16 16 16 16 16 15 15 15 15 15 15 15 15 16 16 16 16 15 15 15 15 15 16 16 17 17
17 16 16 16 16 17 17 18 18 17 17 17 17 17 18 18 18 18 18 18 19 19 18 18 18 18 18 18 18 18 18 18 18 18 18 18 18 18 17 17 17 17 18 18 18 18 17 17 17 17 17 17 16 16 16 16 16 16 16 16 16 16 16 16 16 16 15 15 15 15 15 16 16 16 16 16 15 15 15 15 15 15 16 16 17
16 16 16 16 17 17 17 17 17 17 17 17 17 18 18 19 18 18 18 18 19 19 18 18 18 18 18 18 18 18 18 18 18 18 18 18 18 18 17 17 17 17 17 18 18 18 18 17 17 17 17 17 16 16 16 16 16 16 16 16 16 16 16 16 16 16 15 15 15 15 15 15 16 16 16 16 15 15 15 15 15 15 15 16 17
16 16 16 16 17 17 17 17 17 17 17 18 18 18 19 19 18 18 18 18 18 18 18 18 18 18 18 18 18 18 18 18 18 18 18 18 18 18 17 17 17 17 17 17 18 18 18 18 17 17 17 17 16 16 16 16 16 17 17 17 16 16 16 16 16 16 15 15 15 15 15 15 16 16 16 16 16 15 15 15 15 15 14 14 14
16 16 16 16 17 17 17 17 17 17 18 18 18 19 19 18 18 18 18 18 18 18 18 18 18 18 18 18 18 19 18 18 18 18 18 18 18 18 17 17 17 17 17 17 17 18 18 18 18 17 17 17 17 17 16 16 16 16 17 17 16 16 16 16 16 16 16 15 15 15 15 15 16 17 16 16 16 16 15 15 15 15 14 13 13
17 17 17 17 17 17 17 18 17 17 18 18 19 19 19 19 18 18 18 18 18 18 18 18 19 19 18 19 19 19 19 18 18 18 18 18 18 18 17 17 17 17 17 17 17 17 17 18 18 17 17 17 17 17 17 17 17 17 17 17 17 17 16 16 16 16 16 16 15 16 16 16 16 17 17 16 16 16 15 15 15 15 14 14 14
18 17 17 17 17 17 17 18 18 18 18 19 19 19 19 19 18 18 18 18 18 18 18 18 19 18 19 19 19 19 19 18 18 18 18 18 18 18 17 17 17 17 17 17 17 17 17 17 17 17 17 17 17 17 17 17 17 17 17 17 17 17 17 17 17 17 16 16 16 17 17 17 17 17 17 16 16 16 16 15 15 15 15 15 15
18 17 17 17 17 17 17 18 18 18 18 19 19 19 19 19 18 18 18 18 18 18 18 18 18 18 18 18 18 18 18 18 18 18 18 18 18 17 17 17 17 17 17 17 17 17 17 17 17 17 17 17 17 17 17 17 17 17 17 17 17 17 17 17 17 17 17 17 17 17 17 17 17 17 17 16 16 16 16 15 15 15 15 15 15
18 18 18 18 18 18 18 18 18 18 19 19 19 19 19 19 18 18 18 18 18 18 18 18 18 18 18 18 18 18 18 18 18 18 18 18 17 17 17 17 17 17 17 17 17 17 17 17 17 17 17 18 18 18 17 17 17 17 17 17 17 17 17 17 17 17 17 17 17 17 17 17 17 17 17 16 16 16 16 15 15 15 14 14 14
18 18 18 18 18 18 19 19 18 19 19 19 19 19 19 19 18 18 18 18 18 18 18 18 18 18 18 18 18 18 18 18 18 18 18 18 17 17 17 17 17 17 17 17 17 17 17 17 17 17 17 17 18 18 18 17 17 17 17 17 17 17 17 18 18 18 17 17 17 17 17 17 17 16 16 16 16 16 15 15 15 15 14 13 14
18 19 19 19 19 19 19 19 19 19 19 19 19 19 19 19 18 18 18 18 18 18 18 18 18 18 18 18 18 18 18 18 18 18 18 18 17 17 17 17 17 17 17 17 17 17 17 17 17 17 17 17 17 17 17 17 17 17 17 17 17 17 18 18 18 18 17 17 17 17 17 17 17 16 16 16 16 15 14 14 15 14 13 13 13
19 19 19 19 19 19 19 19 19 19 19 19 19 19 19 19 18 18 18 18 18 18 18 18 18 18 18 18 18 18 18 18 18 18 18 18 18 17 17 17 17 17 17 17 17 17 17 17 17 17 17 17 17 17 17 17 17 17 17 16 16 17 18 18 17 17 17 17 17 17 17 17 17 17 17 16 16 15 15 14 14 14 13 13 13
19 19 19 19 19 19 19 19 19 19 19 19 19 19 19 18 18 18 18 18 18 18 18 18 18 18 18 18 18 18 18 18 18 18 18 18 18 18 17 17 17 17 17 17 17 18 18 18 18 18 18 17 17 17 17 17 17 17 17 17 17 17 18 17 17 17 17 17 17 17 17 17 17 17 17 17 17 16 16 15 15 14 14 13 13
19 19 19 19 19 19 19 19 19 19 19 19 19 18 18 18 18 18 18 18 18 18 18 18 18 18 18 18 18 18 18 18 18 18 18 18 18 17 17 17 17 17 17 17 17 18 18 18 18 18 18 18 18 18 17 17 17 17 17 17 17 17 17 17 17 17 17 17 17 17 17 17 17 17 17 17 17 17 17 16 16 15 15 14 14
19 19 19 19 19 19 19 19 19 19 19 19 18 18 18 18 18 18 18 18 18 18 18 18 18 18 18 18 18 18 18 18 18 18 18 18 18 17 17 17 17 17 17 17 18 18 18 18 18 18 18 18 18 18 18 18 18 18 18 18 18 18 17 17 17 17 17 17 16 16 17 17 17 17 17 18 17 17 16 16 16 16 15 15 15
19 19 19 19 19 19 19 19 19 19 19 19 18 18 18 18 18 18 18 18 18 18 18 18 18 18 18 18 18 18 18 18 18 18 18 18 18 17 17 17 17 17 18 18 18 18 18 18 18 18 18 18 18 18 18 18 18 18 18 18 18 17 17 17 17 17 16 16 16 16 16 16 16 17 17 17 17 17 16 16 16 16 16 16 15
19 19 19 19 19 19 19 19 18 18 18 18 18 18 18 18 18 18 18 18 18 18 18 18 18 18 18 18 18 18 18 18 18 18 18 18 18 18 18 18 18 18 18 18 18 18 18 18 18 18 18 18 18 18 18 18 18 18 18 18 18 17 17 17 16 16 15 15 15 15 16 16 16 16 16 16 16 16 16 16 16 16 16 15 15
19 19 19 19 19 18 18 18 18 18 18 18 18 18 18 18 17 17 17 17 17 17 17 17 17 17 17 17 18 18 18 18 18 18 18 18 18 18 18 18 18 18 18 18 19 18 18 18 18 18 18 18 18 18 18 18 18 18 18 18 18 17 17 16 16 15 14 15 15 15 16 16 16 16 16 16 16 16 16 16 16 16 16 15 15
19 18 19 19 18 18 18 18 18 18 18 18 18 18 18 18 17 17 17 17 17 17 17 17 17 17 17 17 17 17 17 18 18 18 18 18 18 18 18 18 18 18 18 19 19 18 18 18 18 18 18 18 18 18 18 18 19 18 18 18 17 17 16 16 15 15 14 15 15 15 15 16 16 15 16 16 16 16 16 16 16 16 16 15 15
18 18 18 18 18 18 18 18 18 18 18 18 18 17 17 17 17 17 17 17 17 17 17 17 17 17 17 17 17 17 17 17 18 18 18 18 18 18 18 18 18 18 18 18 18 18 18 18 18 18 18 18 18 18 18 18 18 18 18 17 17 16 16 15 15 15 15 15 15 15 15 15 15 15 15 15 15 15 15 15 15 15 15 14 14
18 18 18 18 18 18 18 18 18 18 18 18 18 17 17 17 17 17 17 17 17 17 17 17 17 17 17 17 17 17 17 17 18 18 18 18 18 18 18 18 18 18 18 18 18 18 17 17 18 18 18 18 19 19 18 18 17 17 17 17 16 16 15 15 15 14 15 15 14 15 15 15 15 15 15 15 15 15 15 14 14 14 14 14 13
18 18 18 18 18 18 18 18 18 18 18 18 18 18 18 18 18 18 17 17 17 17 17 17 17 17 17 17 17 17 17 17 18 18 18 18 18 18 18 18 18 18 17 17 17 17 17 17 18 18 18 18 18 18 17 17 17 17 16 16 15 15 15 15 14 14 14 14 14 14 14 14 14 15 14 14 14 14 14 14 14 14 14 14 13
17 18 18 18 18 18 18 18 18 18 18 18 18 18 18 18 18 18 17 17 17 17 17 17 17 17 17 17 17 17 17 17 18 18 18 18 18 18 18 18 18 18 17 17 17 17 17 17 18 18 17 17 16 16 16 16 16 15 15 15 15 15 15 14 14 14 14 14 14 14 14 14 14 14 14 14 14 14 14 14 14 14 14 13 13
17 17 18 18 18 18 18 18 18 18 18 18 18 18 18 18 18 18 17 17 17 17 17 17 17 17 17 17 17 17 17 18 18 18 18 18 18 18 18 18 18 18 17 17 17 17 17 17 17 17 16 16 16 16 15 15 14 14 14 14 14 14 14 14 14 14 14 14 14 14 14 14 14 14 14 14 14 14 14 14 14 14 14 14 13
17 17 18 18 18 18 18 18 18 18 18 18 18 18 18 18 18 18 17 17 17 17 17 17 17 17 17 17 17 18 18 18 18 18 18 18 18 18 18 18 18 18 17 17 17 17 17 16 16 16 16 15 15 15 14 14 14 14 14 14 14 14 14 14 14 14 14 14 14 14 14 14 14 14 14 14 14 14 14 14 14 14 14 14 13
18 18 18 18 17 17 17 18 18 18 18 18 18 18 18 17 17 18 18 17 17 17 17 17 17 18 18 18 18 18 18 18 18 18 19 19 19 18 18 18 18 18 18 17 17 17 17 16 15 16 16 15 15 14 14 14 14 14 14 14 14 14 14 14 14 14 14 14 14 14 14 14 14 14 14 14 14 14 14 14 14 13 13 13 13
18 18 18 18 17 17 17 18 18 18 18 18 18 18 18 18 18 18 18 18 18 18 18 18 18 18 18 18 18 18 19 19 19 19 19 19 19 19 19 19 19 19 18 18 17 17 17 16 16 16 15 14 14 14 14 14 14 14 14 14 14 14 14 14 14 14 14 14 14 14 13 13 13 13 13 13 13 13 13 13 13 13 13 13 13
18 18 18 18 18 17 17 17 17 17 17 17 18 18 18 18 18 18 18 18 18 18 18 19 19 19 19 19 19 19 19 19 19 19 19 19 19 19 19 19 19 19 19 18 18 17 17 16 16 15 14 14 14 14 14 14 14 14 14 14 14 14 14 13 13 13 13 13 12 12 12 12 12 12 12 12 13 13 13 13 13 13 13 13 13
17 17 17 17 17 17 17 17 17 17 17 17 17 18 18 18 18 18 18 17 17 18 18 19 19 19 19 19 19 19 19 19 19 20 20 20 20 19 19 20 20 20 19 19 18 17 16 16 15 14 14 14 14 14 14 14 14 14 14 13 13 12 12 12 12 12 12 12 11 12 12 12 12 12 12 12 12 12 12 12 12 12 13 13 13
17 17 17 17 17 17 17 17 17 16 17 17 17 17 17 17 17 17 17 17 17 17 18 18 19 19 19 19 19 19 19 19 19 20 20 20 20 20 20 20 20 19 19 18 17 16 16 15 14 14 14 14 14 14 14 14 14 13 13 12 12 11 11 11 11 11 11 11 11 11 11 11 11 11 11 11 11 11 11 11 11 12 12 12 12
17 17 17 17 17 17 17 17 17 16 17 17 17 17 17 17 17 17 17 17 17 17 17 18 19 19 19 19 19 19 19 19 19 20 20 20 20 20 20 19 19 19 19 18 17 16 15 14 14 14 14 14 14 14 14 13 13 12 12 12 11 11 10 10 10 10 10 10 10 10 10 10 10 10 10 10 10 10 10 11 11 11 11 12 12
17 17 17 17 17 17 17 17 17 17 17 17 17 17 17 17 17 17 17 17 17 17 18 19 19 19 19 19 19 19 19 19 20 20 20 20 20 20 19 19 19 19 18 17 16 16 15 14 14 14 14 14 13 13 13 12 12 11 11 11 11 10 10 10 10 9 9 9 9 9 9 9 9 9 9 9 9 9 9 9 9 10 10 11 11
17 17 17 17 17 17 17 17 17 17 17 17 17 17 17 17 17 18 18 18 18 19 19 19 19 19 19 19 19 19 19 19 20 20 20 20 20 19 19 18 18 17 17 16 16 15 15 14 14 14 13 13 13 12 12 12 11 11 11 10 10 10 10 9 9 9 8 8 8 8 8 8 8 8 8 8 8 8 7 7 7 8 9 9 10
17 17 17 17 17 17 17 17 17 17 17 17 17 18 18 18 18 18 18 19 19 19 19 19 19 19 19 19 19 19 19 19 20 20 20 20 20 19 18 17 17 17 16 16 16 15 15 14 13 13 13 12 12 11 11 11 11 10 10 10 9 9 9 8 8 8 7 7 7 7 7 7 7 7 7 7 7 7 6 6 6 7 7 8 9
17 17 17 17 17 17 17 17 17 17 17 17 18 18 18 18 18 18 19 19 19 19 19 19 19 19 19 20 20 19 19 19 20 20 20 19 18 17 17 17 17 16 16 16 15 15 14 13 13 12 12 12 11 11 11 10 10 10 9 9 9 8 8 8 7 7 6 6 6 6 6 6 6 5 5 5 5 4 4 4 5 5 6 7 8
18 18 18 18 18 18 18 18 18 18 18 18 18 18 19 19 19 19 19 19 19 19 19 19 19 20 20 20 20 20 20 20 19 19 19 18 17 16 17 16 16 15 15 15 14 14 13 13 13 12 12 11 11 10 10 9 9 9 9 8 8 8 7 7 6 6 6 6 6 5 5 5 5 4 4 3 3 3 3 4 4 5 6 7 7
18 18 18 18 18 18 18 18 18 18 18 18 19 19 19 19 19 19 19 19 19 19 19 19 20 20 20 20 20 20 20 19 19 18 18 17 15 15 16 16 15 14 14 14 13 13 13 13 12 12 11 10 10 9 9 9 9 8 8 8 7 7 7 6 6 6 5 5 5 5 5 5 4 4 3 3 3 3 3 4 4 5 6 6 7
19 19 19 19 19 19 19 19 18 18 18 18 19 19 19 19 19 19 19 19 19 20 20 20 20 20 20 20 20 19 19 19 18 17 17 16 15 14 15 14 14 13 13 13 13 13 12 12 12 11 10 10 9 9 9 8 8 8 8 7 7 6 6 6 5 5 5 5 5 5 5 5 4 4 3 2 3 3 3 3 4 5 5 6 6
20 20 20 20 20 20 20 19 19 19 19 19 19 19 19 19 19 19 19 19 19 19 20 20 20 19 19 19 19 19 18 17 17 16 16 15 14 14 13 13 12 12 13 13 12 12 12 11 10 10 9 9 8 8 8 8 8 7 7 7 6 6 6 5 5 5 4 4 4 4 5 5 5 4 3 2 2 3 3 3 4 4 5 6 6
20 20 20 20 20 20 20 20 20 20 20 19 19 19 20 19 19 19 19 19 19 19 19 19 19 18 18 18 18 17 17 16 16 15 14 14 13 13 12 12 12 12 12 12 11 11 11 10 10 9 9 8 8 8 8 7 7 7 6 6 6 6 5 5 5 4 4 4 4 4 5 5 5 4 3 3 2 3 3 3 4 4 5 5 6
20 20 20 20 20 20 20 20 20 20 20 20 20 20 20 20 20 20 20 20 19 19 18 18 18 17 17 17 16 16 16 16 15 14 13 12 12 12 12 12 12 11 11 11 11 10 10 9 9 8 8 8 8 7 7 7 7 6 6 6 6 5 5 5 4 4 4 4 4 5 5 5 5 4 3 2 2 2 3 3 3 4 4 4 4
21 20 20 20 20 20 20 20 20 20 20 20 20 20 20 20 20 20 19 18 18 17 17 17 16 16 16 16 15 15 15 14 13 13 12 12 11 11 11 11 11 11 10 10 10 9 9 9 8 8 8 8 7 7 7 7 7 6 6 6 6 5 5 4 4 4 4 4 5 5 5 5 5 4 3 3 2 2 2 3 4 4 4 4 4
21 21 20 20 20 20 20 20 20 20 20 20 20 20 21 20 20 19 18 17 17 17 16 16 15 15 15 15 15 14 14 13 13 13 12 12 11 11 11 11 10 10 10 9 9 9 8 8 8 8 7 7 7 7 7 7 6 6 6 6 5 5 4 4 4 3 3 4 5 6 6 5 5 4 3 3 2 2 3 4 4 4 4 3 3
21 21 21 21 21 21 20 20 20 20 20 21 21 21 20 19 18 17 17 16 16 16 15 15 15 15 15 14 14 13 13 13 13 12 12 11 11 11 10 10 10 9 9 8 8 8 8 8 8 8 7 7 7 7 7 6 6 6 6 5 5 5 4 4 3 3 3 4 5 5 6 5 4 4 3 2 2 3 4 4 4 4 3 3 3
Height
762 769 776 782 787 788 792 798 803 808 813 817 819 820 823 825 827 830 833 835 837 839 842 844 845 847 848 849 851 852 853 854 855 855 855 855 855 855 855 855 855 855 855 855 855 855 855 856 857 857 857 858 858 858 858 858 858 857 857 856 856 855 855 854 854 854 854 853 853 852 852 851 849 848 847 845 844 842 840 838 837 835 833 832 831
771 769 771 778 784 787 792 799 803 808 813 816 818 820 822 825 827 831 833 835 838 840 842 844 845 847 848 850 851 852 853 854 855 855 855 855 855 855 855 855 856 856 856 856 856 856 856 857 857 858 858 858 859 859 859 858 858 857 857 856 856 856 855 855 855 854 854 853 853 852 851 851 850 848 847 845 844 842 840 839 837 836 834 833 832
780 778 778 782 785 788 793 800 805 809 813 816 819 820 822 825 828 831 834 836 838 840 842 844 846 847 848 850 851 853 854 854 855 855 855 854 854 855 855 855 856 856 857 857 857 857 857 857 858 858 859 859 859 859 859 859 858 858 857 857 856 856 855 855 855 854 854 853 853 852 851 851 850 849 847 846 844 843 841 840 838 837 835 834 833
782 782 784 787 790 792 796 801 806 811 814 817 819 821 823 826 829 832 834 836 839 841 843 845 846 847 849 850 852 853 854 855 855 855 855 855 855 855 855 855 856 857 857 857 858 858 858 858 858 859 859 860 860 860 860 859 859 858 858 857 857 856 856 856 855 855 854 854 853 852 851 851 850 849 847 846 844 843 841 840 839 837 836 835 834
784 784 786 789 793 797 800 803 807 811 815 817 819 822 824 827 830 832 835 837 839 841 843 845 846 848 849 851 852 853 854 855 856 856 856 856 855 855 855 856 856 857 857 858 858 858 859 859 859 859 860 861 861 861 861 860 860 859 858 858 857 857 857 856 856 855 855 854 853 852 851 850 849 849 847 846 844 842 841 840 839 838 836 835 834
784 786 788 791 795 799 803 806 809 813 816 818 820 823 825 827 830 833 835 837 839 841 843 845 847 848 850 851 853 854 855 855 856 856 856 856 856 856 856 856 857 857 858 858 858 859 859 859 860 860 861 861 861 861 861 861 860 860 859 858 858 857 857 857 856 856 855 854 853 852 851 850 849 848 847 846 844 842 841 840 839 838 837 835 834
785 788 790 793 797 802 805 807 811 814 817 819 821 824 826 828 831 833 836 838 840 841 843 845 847 848 850 851 853 854 855 855 856 856 856 856 856 856 856 856 857 857 858 858 858 859 860 860 861 861 861 862 862 862 861 861 861 860 860 859 858 858 858 857 856 856 855 854 853 852 851 850 849 848 847 846 844 843 841 840 838 837 836 835 834
787 790 792 795 800 804 806 809 812 815 817 820 822 824 827 829 832 834 836 838 840 842 843 845 847 848 850 852 853 854 855 856 856 856 856 856 856 856 856 857 857 858 858 858 858 859 860 860 861 862 862 862 862 862 862 862 861 861 860 859 859 858 858 857 856 855 855 854 853 852 850 849 848 847 846 845 844 843 842 840 839 837 836 835 834
789 792 795 797 801 805 808 810 813 816 818 821 823 825 828 830 832 835 837 839 841 842 843 845 847 849 850 852 853 854 855 856 856 856 856 856 856 856 857 857 857 858 858 858 858 859 860 861 861 862 862 862 862 862 862 862 861 861 860 859 859 858 857 856 856 855 854 853 852 851 850 848 847 846 845 844 843 842 841 840 839 838 836 834 833
790 793 796 798 802 805 809 812 814 816 819 821 823 826 829 831 833 835 837 839 841 842 844 846 847 849 851 852 853 854 855 856 856 856 857 856 856 856 857 857 857 858 858 858 858 859 860 860 861 862 862 862 862 862 862 862 861 860 859 859 858 857 857 856 855 854 853 852 851 850 849 847 846 846 845 844 843 842 841 840 839 837 836 834 833
792 795 797 800 803 806 809 812 814 817 819 822 824 827 829 831 834 836 838 840 842 843 845 846 848 850 851 852 853 854 855 855 856 856 857 857 856 856 856 857 857 857 858 858 858 859 859 860 861 861 862 861 862 861 861 861 860 859 859 858 857 857 856 855 854 854 853 851 850 849 848 847 845 845 844 843 842 841 840 839 838 837 836 835 833
794 796 798 801 804 807 810 812 815 817 819 822 825 827 830 832 834 836 838 840 842 844 845 847 848 850 851 852 853 853 854 855 855 856 857 857 857 856 857 857 857 857 857 857 858 858 859 860 860 860 861 861 861 860 860 859 859 859 858 857 857 856 855 854 853 852 851 850 849 848 847 846 844 843 843 842 841 840 839 838 837 836 835 834 833
795 797 800 803 805 808 810 812 815 818 820 823 825 828 830 832 834 837 839 841 843 844 846 847 848 849 850 851 852 853 854 855 855 856 856 856 857 857 857 857 857 857 857 857 858 858 859 859 859 859 860 860 860 859 859 858 858 857 857 856 855 854 854 853 852 851 850 849 848 847 846 845 843 842 842 841 840 839 837 837 836 835 834 833 832
797 799 801 804 806 808 811 813 816 818 821 823 826 828 831 833 835 837 839 841 843 844 846 846 848 849 850 851 852 852 853 854 854 855 856 856 856 856 857 856 856 856 857 857 858 858 858 859 858 859 859 859 858 858 857 857 856 855 855 854 853 853 852 851 851 850 849 848 846 845 844 844 842 841 841 840 838 837 836 835 834 833 832 831 829
799 801 803 805 807 809 812 814 816 819 822 824 827 829 831 833 836 838 840 842 843 845 846 847 848 849 850 851 852 852 853 853 854 855 855 856 856 856 856 856 856 856 857 857 858 858 858 858 858 858 857 857 857 857 856 855 854 854 853 852 851 851 850 850 849 848 848 846 845 844 843 842 841 840 839 838 837 836 835 834 833 832 830 829 827
800 802 804 807 809 811 813 815 817 820 822 825 827 830 832 834 836 838 840 842 843 845 846 847 848 849 850 851 851 852 852 853 853 854 855 855 856 856 856 856 856 856 856 857 857 857 858 857 857 857 856 856 856 855 855 854 853 852 851 850 849 849 847 847 847 846 846 844 843 842 841 840 839 838 837 836 835 834 833 832 831 830 829 827 825
802 804 806 808 810 812 814 816 818 820 823 825 827 830 832 834 836 838 840 842 843 845 846 847 848 849 850 850 851 851 852 852 853 853 854 854 855 855 855 855 855 856 856 856 857 857 857 856 856 855 855 855 855 854 854 853 851 851 850 848 848 846 845 844 844 844 843 842 841 840 839 838 837 836 835 834 833 832 831 829 828 827 827 826 823
803 805 807 809 811 813 815 817 819 821 823 826 828 830 832 834 836 838 840 841 843 844 846 847 848 849 849 850 850 851 851 852 852 853 853 854 854 854 854 855 855 855 855 855 856 855 855 855 854 854 854 853 853 853 852 852 850 849 848 847 846 844 843 842 841 841 840 839 838 837 836 835 834 832 831 831 830 829 828 826 825 825 825 824 822
804 806 809 811 813 815 816 818 820 822 824 826 828 830 832 834 836 838 840 841 842 844 845 846 847 848 848 849 850 850 850 851 851 852 852 853 853 853 854 854 854 854 854 854 854 854 853 853 853 852 852 852 851 851 850 850 848 847 847 845 843 842 840 840 839 838 837 836 834 833 832 831 830 829 828 827 826 826 825 823 823 823 822 821 820
806 808 810 812 814 816 818 820 821 823 825 826 828 830 832 834 836 837 839 840 842 843 844 845 846 847 847 848 848 849 849 850 850 851 851 852 852 852 852 852 852 852 852 852 852 851 851 851 851 851 850 850 849 849 848 847 846 845 844 843 841 839 838 837 836 835 834 832 831 830 828 827 826 825 824 823 823 822 821 821 820 820 819 818 817
807 809 811 813 815 817 818 820 822 823 825 827 828 830 832 833 835 837 838 839 841 842 843 844 845 845 846 847 847 848 848 849 849 850 851 851 851 851 851 851 851 851 851 851 850 850 849 849 849 849 848 848 847 846 846 845 844 843 841 840 838 837 836 835 833 832 831 829 828 826 825 824 823 822 821 820 819 819 818 818 817 817 816 815 814
808 810 812 814 816 817 819 821 822 824 826 827 828 830 832 833 835 836 837 838 840 841 842 843 844 844 845 846 847 847 848 848 849 849 850 850 850 850 850 850 850 850 849 849 848 848 847 847 847 846 846 846 845 844 844 843 842 841 839 838 836 835 834 832 831 829 828 827 825 823 822 820 819 818 818 817 816 816 815 815 814 814 813 812 812
808 810 812 814 816 818 819 821 822 824 825 827 828 830 831 833 834 835 837 838 839 840 841 842 843 843 844 845 846 846 847 847 848 848 848 848 849 849 848 848 848 848 847 846 846 846 845 845 845 845 844 844 843 842 842 841 840 838 837 835 834 833 831 830 828 826 825 824 822 820 819 818 817 816 815 814 814 813 812 812 811 811 810 809 809
809 810 812 814 816 818 819 821 823 824 826 827 829 830 831 833 834 835 836 837 838 839 840 841 842 843 843 844 845 845 846 846 846 847 847 847 847 847 847 847 846 846 845 844 844 844 844 843 843 843 842 841 841 840 839 838 837 835 834 832 831 830 828 826 825 824 822 821 819 818 816 816 815 813 813 812 811 810 810 809 808 808 807 806 806
809 810 812 814 816 818 819 821 823 824 826 827 829 830 831 832 833 835 836 837 837 838 839 840 841 842 842 843 844 844 845 845 845 845 845 845 845 845 845 845 844 844 843 842 842 842 842 841 841 840 840 839 838 837 836 834 833 832 830 829 827 826 825 823 822 821 819 818 817 815 814 813 812 811 810 809 808 807 807 806 805 804 804 803 802
809 811 812 814 816 818 819 821 823 824 826 827 828 829 831 832 833 834 835 836 837 837 838 839 840 841 841 842 842 843 843 843 843 843 844 844 844 844 844 843 843 842 841 841 841 840 840 839 839 838 837 836 835 834 832 831 830 828 827 826 825 823 822 821 819 818 817 815 814 813 811 810 809 808 807 807 805 804 804 803 802 801 800 800 798
809 811 812 814 816 818 819 821 822 823 825 826 828 829 830 831 832 833 834 835 836 836 837 838 838 839 840 840 841 841 841 841 841 841 842 842 842 842 842 841 841 840 840 839 839 838 838 837 836 835 834 833 832 830 829 828 827 825 824 823 822 821 820 819 817 816 814 813 812 810 809 808 807 806 805 804 803 802 802 801 799 798 797 797 796
809 811 812 814 816 817 818 820 821 823 825 826 827 829 830 831 832 832 833 834 834 835 836 836 837 837 838 838 839 839 839 839 839 839 840 840 840 840 840 839 839 839 838 838 837 836 835 834 833 832 831 829 828 827 826 825 824 823 821 820 819 818 817 816 815 814 813 812 810 809 807 806 805 804 803 802 800 800 799 798 797 796 795 795 794
809 811 812 813 815 816 818 819 821 822 824 825 826 828 829 830 831 831 832 832 833 833 834 835 835 836 836 837 837 837 837 836 837 837 838 838 838 838 838 837 837 836 836 835 835 834 832 831 830 828 827 826 825 824 823 822 821 820 819 818 817 816 815 814 813 812 811 810 809 807 806 805 804 802 801 800 799 798 797 796 795 794 793 793 791
809 810 811 813 814 815 817 819 820 822 823 824 825 827 828 829 830 830 831 831 832 832 833 833 834 834 834 835 835 835 835 834 835 835 836 836 836 836 835 835 835 834 834 833 832 831 829 828 826 825 825 824 823 822 821 820 819 818 817 816 815 814 813 812 811 810 809 808 807 806 804 803 802 801 800 798 797 796 796 795 794 793 792 790 789
808 809 811 812 813 815 816 818 819 821 822 823 824 826 826 827 828 829 830 830 831 831 831 832 832 833 832 833 833 833 832 832 833 833 833 833 833 833 833 833 832 831 831 830 829 828 826 825 824 823 823 822 821 820 819 818 817 816 815 814 813 812 811 810 809 808 807 806 805 804 803 801 800 799 798 797 795 794 794 793 792 791 790 788 787
807 808 810 811 812 814 815 817 818 820 821 822 823 824 825 826 827 827 828 829 829 830 830 830 830 830 830 830 830 830 830 830 830 830 830 830 830 830 829 829 829 828 828 827 825 824 823 822 821 820 820 820 819 818 817 816 815 815 814 812 812 811 809 808 807 807 805 804 803 802 801 800 798 797 796 795 794 793 792 791 790 789 788 786 785
806 807 809 810 811 813 814 815 816 818 819 820 821 822 823 824 825 825 826 827 827 828 828 828 828 828 828 828 828 828 828 827 827 827 827 827 827 826 826 826 825 824 824 823 822 820 820 819 819 818 818 817 817 816 816 815 814 813 812 811 810 809 807 806 805 805 804 802 801 800 799 798 797 795 794 794 792 791 790 789 788 787 785 784 783
805 806 807 808 810 811 812 813 815 816 817 818 819 820 821 822 823 824 824 825 825 825 825 825 826 826 826 826 826 826 825 825 824 824 824 824 824 823 823 822 821 821 820 819 818 817 817 816 816 816 816 815 815 814 814 813 812 812 811 810 808 806 805 804 803 803 802 801 799 798 797 797 796 795 793 792 791 790 789 787 786 785 783 782 780
803 805 806 807 809 810 811 812 814 815 816 817 818 819 820 820 821 822 822 823 823 823 823 823 823 823 823 823 823 823 823 822 822 822 821 821 821 820 819 819 818 817 816 816 815 815 814 814 814 814 814 814 813 813 812 811 811 810 809 808 807 805 804 803 802 802 801 800 799 798 797 796 795 795 793 792 790 789 788 786 785 783 781 780 778
802 803 805 806 808 808 809 811 812 813 815 816 817 817 818 819 820 820 821 821 821 821 821 821 821 821 821 821 821 821 820 820 819 819 819 818 818 817 816 816 815 814 814 813 813 812 812 812 812 812 812 812 811 811 810 810 809 809 808 807 806 805 804 803 802 802 801 800 799 798 797 796 795 794 793 792 790 789 787 786 784 782 780 779 777
800 801 803 804 806 807 808 809 810 812 813 814 815 816 817 818 818 819 819 819 819 819 819 818 818 818 818 818 818 818 818 817 817 817 816 816 815 814 814 813 812 812 811 811 811 810 810 810 810 810 810 810 810 810 809 809 808 808 807 807 806 805 804 803 802 802 801 800 799 797 796 795 794 793 792 791 789 788 786 785 783 781 780 778 776
799 799 801 803 804 805 806 807 809 810 812 813 814 815 815 816 816 817 817 817 817 816 816 816 816 816 815 815 816 816 815 815 815 814 814 813 812 812 811 810 810 809 809 809 809 808 808 808 808 808 808 808 808 808 808 808 807 807 806 806 805 805 804 803 802 801 800 799 798 796 795 794 793 791 790 789 787 786 784 783 781 780 778 777 775
797 798 800 801 802 803 805 806 807 808 809 810 811 812 813 814 814 814 814 814 814 814 814 814 814 814 813 813 814 813 813 813 812 812 811 811 810 809 808 808 807 807 807 807 807 806 807 807 807 807 807 807 807 807 807 806 806 806 805 805 804 804 803 802 802 801 800 798 797 795 794 793 792 790 789 787 786 784 782 781 780 778 777 775 774
795 797 799 800 801 802 803 804 806 806 807 808 809 810 811 811 811 812 812 812 812 812 812 811 811 811 811 811 811 811 811 810 810 809 809 808 807 806 806 805 805 805 805 806 806 805 806 806 805 805 806 805 806 806 805 805 805 805 804 804 804 803 803 802 802 801 799 798 796 795 793 792 790 789 787 786 784 782 780 779 778 777 775 774 772
794 796 797 799 800 801 802 803 804 804 805 807 807 808 809 809 809 809 810 809 810 810 809 809 809 809 809 809 809 809 808 808 807 806 806 805 804 804 803 803 803 803 803 803 803 803 804 804 804 804 804 804 804 804 804 804 804 804 804 804 803 803 802 802 801 800 798 797 795 794 793 791 790 788 786 784 782 781 779 778 776 775 774 772 771
794 795 796 798 799 800 800 801 802 802 804 805 805 806 806 806 807 807 807 807 807 807 807 807 807 806 806 806 806 806 805 805 804 804 803 802 802 801 801 801 801 801 801 802 801 801 802 802 802 803 803 803 803 803 803 803 803 803 803 803 803 802 802 801 800 799 798 796 795 793 792 790 788 786 785 783 781 780 778 777 775 774 772 771 770
793 794 795 796 797 798 799 799 800 801 802 802 803 803 804 804 805 805 805 805 805 805 804 804 804 804 804 804 804 803 803 802 802 801 800 800 799 799 800 800 800 800 801 801 801 801 802 802 802 802 802 802 803 803 803 803 803 803 803 803 802 801 801 800 799 798 797 795 794 792 790 789 787 785 783 782 780 779 777 776 775 773 772 770 769
791 792 794 795 795 796 797 798 798 799 800 800 801 801 802 802 803 803 803 803 803 802 802 802 802 801 801 801 801 801 800 800 799 799 798 798 798 798 798 798 798 799 800 801 801 801 801 801 802 802 802 802 802 802 803 803 803 803 803 802 801 801 800 799 798 797 796 794 792 791 789 787 786 784 782 781 779 778 777 776 774 773 771 770 768
790 791 792 793 794 795 795 796 797 798 798 799 799 799 800 800 800 800 800 800 800 800 800 800 799 799 799 799 799 798 798 797 797 797 797 797 797 797 797 797 798 799 800 800 801 801 801 801 801 801 801 802 802 802 802 803 803 802 802 801 801 800 799 799 798 796 795 793 791 790 788 786 784 783 781 780 778 777 776 775 774 772 771 769 768
789 789 790 791 792 793 794 795 795 796 796 797 797 797 798 798 798 798 798 798 797 797 797 797 797 797 797 796 796 796 795 795 795 795 796 796 795 796 796 797 798 799 800 800 800 801 801 801 801 801 801 801 802 802 802 802 802 802 801 800 800 799 798 798 797 795 794 793 791 789 787 785 783 782 780 778 777 776 775 774 773 771 770 768 767
788 788 789 790 791 791 792 793 794 794 795 795 795 795 796 795 795 795 795 795 795 795 795 795 795 795 794 794 794 793 794 794 794 794 794 795 795 796 796 797 798 799 799 799 800 800 800 800 800 800 801 801 801 802 802 801 801 801 800 799 799 798 797 796 795 794 793 792 789 787 785 784 782 780 779 777 776 775 774 773 772 771 769 768 766
786 787 788 788 789 790 791 791 792 792 793 793 793 793 793 793 793 793 793 793 793 793 793 793 792 792 792 792 792 792 793 793 793 794 794 795 796 796 797 797 798 798 798 799 799 800 800 800 800 800 801 801 801 801 801 801 800 800 799 798 798 797 796 795 794 793 791 790 788 786 784 782 781 779 778 777 776 774 773 772 771 770 768 767 765
785 785 786 786 787 788 788 789 790 790 790 791 791 791 791 791 791 791 791 791 791 791 791 790 790 791 792 792 792 792 792 793 793 794 795 796 796 797 797 797 797 798 798 799 799 799 799 800 800 800 801 801 801 801 800 800 799 799 798 797 797 796 795 794 793 791 790 788 786 784 782 780 779 778 777 776 775 774 773 772 770 769 768 766 764
783 784 784 785 785 786 786 787 788 788 788 789 789 789 789 789 789 789 789 790 789 789 789 789 790 791 791 791 791 792 792 793 793 794 795 796 796 797 797 797 797 797 798 798 798 799 799 800 800 800 800 800 800 800 799 799 798 797 796 796 795 794 793 792 791 789 788 786 783 782 780 779 778 777 776 775 774 773 772 771 770 768 767 765 764
782 782 783 783 784 784 785 785 785 786 787 787 787 787 787 787 787 788 788 788 787 787 788 789 789 790 790 790 791 791 792 793 793 794 795 796 797 797 797 797 797 797 798 798 798 799 800 800 800 800 800 799 799 799 798 797 797 796 795 794 794 793 792 791 789 787 785 783 781 780 778 777 776 775 774 774 773 773 772 771 769 768 766 765 763
Wind_Speed
39 43 41 38 37 35 35 35 34 34 34 33 29 26 25 25 24 24 22 20 20 20 19 17 15 15 13 13 13 13 11 9 6 4 4 4 3 1 1 1 4 6 7 8 9 8 5 4 4 5 5 5 5 5 4 4 2 2 3 3 3 3 3 3 3 2 3 3 3 5 7 8 11 13 15 17 19 20 19 16 16 16 15 13 11
22 34 39 37 37 36 35 35 34 34 34 31 26 25 26 26 25 25 23 21 20 19 18 17 16 15 14 12 12 11 8 6 3 2 3 5 5 4 3 2 1 3 5 6 8 8 7 4 3 4 4 5 5 4 3 3 1 2 3 3 3 3 3 3 3 3 5 5 5 7 8 8 10 12 13 15 18 20 20 17 16 17 16 15 14
9 21 30 32 35 36 36 35 33 32 31 27 24 26 27 26 26 26 24 22 21 19 18 18 17 15 13 11 10 8 6 4 3 3 3 3 4 5 5 4 2 2 3 4 5 7 6 4 2 3 3 4 4 4 4 5 5 3 4 4 3 4 5 6 6 6 8 8 8 9 9 9 10 11 12 14 15 18 20 18 16 16 16 16 16
14 23 29 30 33 35 36 35 33 31 28 25 25 26 26 26 27 27 25 23 21 19 18 17 16 15 12 10 8 6 5 5 5 5 5 3 3 5 7 5 4 2 2 2 3 4 5 5 3 2 2 3 4 4 5 7 8 8 8 7 7 7 8 8 8 8 8 8 8 9 9 10 10 11 12 13 15 17 19 19 17 15 15 15 15
21 27 30 31 32 33 35 35 33 30 27 26 27 26 25 27 28 27 26 23 20 18 17 16 15 14 13 11 9 7 5 6 6 6 5 4 4 6 8 6 4 3 2 2 1 2 4 5 4 2 1 4 5 5 5 5 6 7 8 8 8 8 7 6 6 7 7 8 9 9 10 10 11 11 12 13 15 17 19 19 18 16 15 14 14
26 29 30 32 33 32 33 34 32 28 26 27 27 25 25 28 28 26 25 23 19 17 16 15 14 13 12 11 9 7 6 7 7 5 4 4 4 4 6 6 4 3 2 2 2 1 2 4 3 2 2 3 5 5 4 3 3 4 5 5 5 5 4 4 4 5 6 8 9 9 10 10 11 11 12 12 14 16 18 18 18 18 16 14 14
28 30 31 33 33 32 33 33 30 26 26 28 26 24 25 27 26 24 23 21 18 16 15 14 13 12 12 10 8 6 6 7 6 4 3 3 3 3 5 6 4 4 4 3 4 4 1 1 2 1 3 4 4 5 4 2 2 2 2 2 2 2 2 3 4 5 7 8 9 10 10 10 10 11 11 12 13 14 16 17 18 18 18 17 14
28 30 32 33 32 32 33 31 27 25 27 28 25 23 25 25 24 23 22 20 17 15 14 13 12 12 11 10 7 6 7 6 5 4 2 1 2 2 4 6 5 5 5 5 5 5 4 2 2 2 3 4 4 4 3 1 1 2 2 2 3 3 4 5 5 6 8 9 10 10 11 11 10 10 11 11 12 13 14 15 16 17 18 18 15
30 31 32 33 33 33 32 29 25 25 27 26 23 24 25 25 24 22 21 19 16 13 13 12 12 12 11 10 8 8 7 6 3 2 0 1 1 1 3 5 6 5 4 5 5 5 6 6 4 4 5 4 4 3 2 2 4 6 5 4 5 6 6 6 7 8 8 10 11 11 12 13 11 10 11 11 11 12 13 14 15 15 16 17 16
31 31 31 33 34 34 31 27 25 26 26 24 24 25 26 24 22 21 19 18 16 14 13 12 11 11 11 10 9 8 8 6 3 2 1 1 2 1 1 3 5 5 4 4 4 4 5 7 7 6 7 7 7 6 7 7 9 9 7 6 7 7 8 8 9 9 10 12 12 12 13 14 13 11 11 11 11 12 13 14 16 16 15 16 15
29 30 31 32 34 33 29 26 26 26 25 24 25 26 25 22 20 20 19 18 16 14 13 12 12 11 10 9 8 8 9 7 5 4 3 1 1 1 1 2 4 5 4 4 4 4 6 7 8 8 8 9 10 10 10 11 10 10 8 8 8 9 10 10 11 11 12 13 14 14 14 15 15 13 12 12 11 12 13 14 16 17 15 12 11
28 29 30 31 32 30 27 26 27 25 24 25 26 25 23 21 20 20 19 17 16 14 12 12 12 12 11 8 7 8 9 8 6 6 4 1 1 1 2 3 4 5 6 5 5 5 6 8 9 9 9 9 10 10 10 10 10 10 9 9 9 9 10 12 13 13 13 14 16 16 16 16 16 15 14 13 13 13 15 16 16 16 15 13 13
26 27 28 29 29 28 27 27 27 26 25 26 26 25 23 22 20 19 18 16 14 12 11 11 12 12 11 9 8 9 9 8 7 6 5 2 0 1 2 2 3 4 6 7 6 6 7 8 9 10 9 9 10 11 11 11 11 11 11 12 11 11 11 12 13 14 14 15 17 18 17 16 16 16 15 14 15 15 16 17 17 17 17 17 17
25 25 26 27 27 26 26 27 27 26 27 27 26 25 23 22 20 19 17 15 13 11 10 10 10 10 10 9 8 8 8 9 9 7 5 3 1 1 2 2 2 3 5 6 7 7 7 8 9 9 8 9 10 12 13 13 13 14 14 14 14 13 13 13 14 13 14 15 17 18 17 16 17 17 16 15 16 17 18 19 19 19 19 20 20
24 24 24 25 25 25 26 27 27 28 28 28 26 25 23 21 19 18 17 15 13 12 11 10 9 9 8 8 8 8 8 10 9 7 6 4 3 2 3 3 3 3 3 5 7 8 8 8 8 8 8 8 10 11 12 14 15 16 17 17 18 17 17 17 16 16 16 16 18 19 19 18 19 19 18 17 18 18 19 19 20 20 22 22 21
22 23 23 23 24 24 25 27 28 29 29 28 26 26 24 20 18 18 18 16 13 12 11 10 9 8 8 8 8 8 8 9 8 7 7 6 5 5 5 4 4 4 4 5 6 8 8 8 8 9 9 9 9 10 11 13 15 17 19 20 20 20 20 19 18 18 19 19 20 21 20 20 20 21 21 20 20 20 19 20 21 21 21 20 20
21 21 22 23 24 25 26 27 28 29 29 28 27 26 24 21 20 18 18 17 14 11 11 10 9 9 9 8 7 6 6 6 6 7 7 7 6 7 7 6 6 6 6 6 6 6 7 8 9 10 11 11 11 12 11 12 14 15 17 19 20 21 22 21 20 19 19 19 20 21 21 22 21 22 22 21 21 21 19 21 22 21 17 14 15
21 21 22 23 24 25 26 27 28 29 29 28 27 26 24 22 21 19 18 16 14 12 11 11 10 10 9 8 6 5 4 4 5 5 6 6 7 8 8 8 8 9 9 8 8 7 6 7 8 10 12 12 13 13 13 13 14 15 17 18 20 22 24 23 22 21 20 20 21 22 22 23 23 23 23 23 22 20 19 21 22 19 16 13 13
20 20 22 23 24 25 26 26 27 28 28 27 26 26 24 22 21 19 18 16 14 12 12 11 10 9 9 8 7 6 5 6 6 6 6 7 8 8 9 10 10 11 11 11 10 9 8 7 7 9 10 11 12 12 12 13 14 16 17 18 20 23 23 22 22 23 23 24 24 25 25 25 25 25 24 23 21 20 19 20 20 19 19 19 16
20 20 21 21 22 23 23 24 25 26 26 25 25 25 23 21 21 20 18 16 14 12 10 8 8 8 9 7 6 5 6 7 8 8 8 8 8 9 11 12 12 12 12 13 12 11 10 9 9 9 10 11 12 12 12 13 14 15 17 18 21 23 23 23 24 25 26 26 27 27 27 26 25 24 23 21 19 17 16 16 15 16 19 22 21
20 19 20 20 20 20 21 22 23 24 24 24 24 24 22 20 21 20 18 16 14 12 10 8 7 7 7 5 4 3 2 3 4 6 7 8 9 10 11 12 12 12 13 13 14 13 12 11 11 11 11 12 13 14 15 15 16 18 19 21 23 25 25 26 26 26 27 28 28 28 28 26 24 22 21 19 17 16 15 14 12 13 15 19 21
20 20 20 20 20 19 19 20 20 21 21 23 24 23 21 19 20 19 17 16 14 13 11 9 8 8 7 4 4 3 2 2 3 4 6 7 8 9 11 12 12 12 13 14 15 14 14 14 14 14 14 14 14 15 16 16 18 20 22 24 25 25 25 26 27 27 28 29 28 28 27 25 23 21 19 18 17 16 16 15 13 13 14 17 19
20 19 19 19 19 20 20 19 19 19 20 21 22 22 20 19 19 18 17 16 15 13 12 10 9 9 9 8 7 6 5 5 5 6 7 8 8 9 10 11 12 12 14 16 16 16 16 16 16 16 15 15 16 16 17 19 21 24 25 24 24 24 25 26 27 27 28 27 27 27 26 24 23 21 19 18 18 18 18 18 16 15 15 17 18
19 18 19 19 20 20 20 20 19 19 18 19 19 19 19 18 18 17 17 16 15 13 12 11 9 9 10 10 10 10 10 9 9 9 9 10 10 10 10 11 12 13 15 16 17 17 17 17 17 17 17 17 17 18 21 24 27 27 25 24 24 24 24 24 25 24 24 24 24 25 24 23 23 22 20 19 19 19 19 19 18 17 17 17 18
18 18 19 19 20 20 20 19 18 17 16 16 16 17 18 17 16 16 17 16 15 13 12 11 11 10 10 11 11 12 11 11 11 11 12 13 13 12 11 11 12 13 15 16 17 17 17 18 18 19 19 19 20 23 27 29 29 27 26 24 23 22 21 21 21 21 21 22 22 23 23 21 21 21 21 20 20 19 19 19 19 18 18 17 17
18 19 19 20 20 20 19 18 16 14 13 13 13 14 15 16 16 15 15 15 15 15 13 12 12 12 12 13 13 13 13 13 14 14 15 16 15 14 12 12 12 12 13 14 15 16 17 18 18 19 21 23 26 28 30 29 28 27 25 22 20 19 18 18 18 18 19 20 21 22 21 20 20 20 20 20 20 20 19 20 21 20 19 18 19
19 20 20 20 20 20 18 17 16 14 13 12 12 12 12 14 15 15 15 15 16 16 16 15 14 14 14 14 14 15 15 15 16 17 18 18 16 14 13 14 14 14 14 14 15 16 17 19 21 23 26 27 28 28 27 27 27 25 23 19 17 17 17 16 16 17 18 19 19 20 20 20 20 20 20 20 21 20 19 19 20 20 19 18 18
20 20 20 19 19 19 18 17 16 15 13 12 12 12 12 13 14 15 15 16 16 17 17 17 16 16 15 15 15 15 16 17 20 21 20 18 15 14 14 15 16 16 17 17 17 18 20 23 25 27 27 27 27 26 26 26 24 22 20 17 17 17 16 16 16 16 17 18 19 19 19 19 20 20 20 20 20 19 18 18 18 17 17 16 14
20 19 19 19 19 19 18 18 17 15 14 13 13 13 13 14 15 15 14 14 15 16 16 17 17 17 17 17 17 17 19 21 22 21 19 17 15 16 17 17 18 19 19 19 21 22 25 27 28 28 27 26 26 26 26 24 21 19 18 17 17 16 16 16 16 17 17 17 18 18 19 19 19 18 17 17 16 16 17 17 16 17 17 15 13
19 19 19 19 19 19 19 18 17 16 15 15 15 14 14 15 16 15 14 12 13 14 15 16 17 16 17 18 18 19 20 21 20 19 17 17 17 18 19 19 19 20 20 21 23 25 27 28 28 27 26 25 24 24 23 21 19 18 18 17 16 16 15 15 16 16 16 16 17 17 17 16 15 14 13 14 15 15 16 16 16 16 16 14 14
20 19 20 20 20 20 20 19 19 17 16 16 15 16 16 16 16 16 15 13 12 13 14 16 16 16 17 17 17 17 18 18 18 17 17 18 18 19 20 20 20 20 21 22 24 26 27 27 27 26 24 22 21 20 18 17 17 17 17 17 16 15 16 16 15 14 15 16 16 16 15 14 13 13 13 13 14 15 15 15 15 14 14 14 15
21 21 21 21 21 21 20 20 18 17 17 16 15 16 17 17 17 18 17 16 15 14 15 16 16 16 17 17 16 17 17 17 18 18 18 18 19 20 20 21 21 22 22 23 24 26 25 24 24 23 22 19 18 16 15 15 15 15 15 15 16 16 16 16 14 14 15 15 15 15 14 13 13 14 13 13 13 14 14 15 15 15 16 16 16
23 22 23 23 22 21 21 21 20 19 18 17 17 17 17 17 18 18 17 16 16 16 16 16 16 16 16 16 17 18 18 18 19 19 19 19 19 20 20 21 21 22 23 23 23 24 23 22 21 20 18 15 14 14 13 13 13 12 12 13 15 17 17 14 12 12 14 13 13 13 13 12 12 13 13 13 13 14 15 16 16 16 16 15 14
24 23 24 24 23 22 22 22 22 21 20 19 18 17 17 17 17 17 17 16 16 15 14 14 14 14 14 15 15 16 17 17 16 16 16 16 17 18 19 20 21 22 22 22 22 22 22 21 19 16 13 12 12 12 11 11 11 12 13 14 18 19 17 12 9 9 11 11 10 9 9 9 11 13 14 14 13 14 15 15 15 16 16 16 16
25 24 23 23 23 22 22 22 21 20 20 20 19 18 18 17 16 16 17 17 17 16 15 14 13 13 13 13 14 14 14 14 13 13 13 14 15 17 18 19 20 21 21 20 20 19 18 17 14 11 10 10 9 9 10 11 12 13 13 13 14 13 10 7 7 8 10 11 11 11 11 11 12 14 16 15 14 13 14 15 15 16 16 17 18
24 23 22 22 23 23 23 22 22 21 21 20 20 19 18 17 16 17 17 17 18 18 18 16 14 14 14 14 14 14 14 13 13 13 13 14 16 17 18 19 19 19 19 19 18 16 13 11 9 8 8 8 7 7 8 9 9 9 8 8 8 8 8 9 9 9 10 12 14 14 14 14 15 16 17 18 17 16 16 16 16 16 16 16 17
23 23 22 22 22 23 23 22 22 21 21 20 20 19 18 18 18 18 18 18 19 19 19 18 16 15 16 15 14 14 15 14 14 14 15 16 16 16 17 18 17 18 18 17 14 12 9 7 6 6 6 6 6 6 6 6 5 4 4 6 8 9 10 11 11 12 12 14 15 15 15 16 17 17 18 19 19 18 18 18 18 17 17 17 17
23 23 23 22 22 22 22 21 21 20 20 20 20 20 19 19 19 19 19 19 19 19 19 18 16 16 17 16 15 15 16 16 16 16 17 17 18 18 18 17 16 17 16 13 10 8 7 6 5 5 4 4 5 5 5 4 3 3 4 6 6 7 9 11 13 15 16 16 17 17 17 17 18 17 18 19 19 19 20 20 19 18 17 17 16
23 23 22 21 21 21 20 20 20 19 20 20 21 20 19 19 19 19 19 19 20 19 18 17 17 17 17 16 16 16 17 17 18 19 19 20 21 21 19 17 16 16 13 10 8 7 6 5 5 4 4 4 5 5 4 3 2 4 4 4 5 8 11 14 16 18 18 18 17 17 17 17 17 17 18 18 19 20 20 19 18 16 16 16 16
21 20 19 19 19 19 18 17 17 18 19 20 20 19 19 20 20 19 19 19 19 17 17 17 19 19 18 17 17 17 18 19 20 21 21 22 23 22 19 16 14 11 8 7 7 7 6 5 4 4 4 4 3 3 2 2 3 3 3 4 7 9 12 14 15 15 15 15 16 16 17 17 18 18 18 18 19 18 18 17 16 15 14 15 16
17 17 18 18 17 17 16 16 16 17 17 18 18 18 19 20 20 19 19 18 18 18 18 19 19 19 18 18 17 18 18 19 20 21 22 24 23 19 14 12 10 8 7 8 9 8 7 6 5 4 3 3 2 2 2 2 1 1 2 5 7 9 11 12 12 12 13 14 16 17 18 19 19 19 19 19 17 15 15 14 14 14 14 14 15
13 14 15 15 15 15 16 16 16 16 17 17 18 18 19 19 19 18 18 18 18 18 18 19 19 19 18 17 17 18 19 20 21 23 23 22 18 12 9 9 9 9 8 9 8 7 7 6 4 3 3 2 2 2 1 1 0 1 4 6 8 9 10 10 11 12 14 15 16 17 18 19 19 19 18 16 14 13 13 13 13 13 14 14 14
10 11 11 12 13 14 15 15 15 16 17 18 18 18 18 18 17 18 18 18 17 17 18 18 19 19 18 17 18 19 21 22 23 22 20 16 10 8 8 9 9 7 6 5 5 5 4 3 2 2 2 2 2 1 1 1 2 3 6 7 9 9 9 10 12 14 16 17 18 18 18 19 20 19 16 12 11 12 12 12 12 13 14 14 14
10 10 10 10 11 12 13 14 15 17 17 17 17 16 16 16 17 18 18 19 18 18 18 19 20 20 20 20 21 22 23 23 21 17 13 9 7 7 8 8 7 5 3 2 1 1 2 3 3 2 1 2 2 2 1 2 4 6 7 8 7 8 9 11 13 15 17 19 19 19 19 19 20 18 14 11 11 12 11 11 13 13 13 14 14
9 9 10 10 10 12 13 14 15 17 17 16 16 16 16 17 17 18 19 19 19 19 20 20 21 21 21 21 22 22 22 19 14 10 9 8 6 5 7 7 5 4 2 1 1 3 4 4 3 1 2 3 3 2 2 4 6 7 7 7 7 8 9 11 13 15 18 19 19 19 19 19 19 18 14 11 11 11 11 11 13 13 13 14 14
10 9 10 10 10 12 13 14 15 16 16 16 16 17 18 18 19 19 19 19 19 20 20 21 21 20 20 21 20 19 16 11 8 8 9 9 7 5 4 4 4 2 1 2 3 4 3 2 0 1 2 3 2 2 3 5 6 6 6 7 7 8 10 11 13 16 18 19 19 19 18 18 18 18 16 12 10 10 11 12 12 13 13 14 14
11 11 12 12 13 13 14 14 15 16 17 17 18 19 19 20 20 19 20 20 20 20 20 20 20 19 19 17 15 12 9 7 8 8 8 8 6 4 3 2 2 3 4 4 4 3 2 1 1 2 2 2 3 4 5 6 6 6 6 6 8 9 10 12 14 17 19 20 19 18 17 15 15 16 15 12 9 10 11 11 12 13 13 14 14
13 14 14 15 15 16 16 16 17 18 18 19 20 20 20 21 21 21 21 21 21 20 19 19 17 16 13 10 7 6 6 7 7 5 4 4 3 2 2 3 4 5 5 5 5 4 2 1 1 1 2 4 5 6 6 6 6 6 7 8 9 10 11 13 16 19 20 21 20 17 14 12 12 13 12 10 9 9 11 11 12 13 13 13 13
15 15 16 17 17 18 18 18 18 19 20 20 21 21 21 21 22 22 21 19 18 17 17 14 11 8 6 4 4 5 6 5 4 2 1 2 3 3 4 5 6 6 6 6 5 3 1 1 1 2 4 6 6 6 6 6 6 7 8 10 11 12 13 16 18 20 22 23 20 15 12 10 9 9 10 9 8 8 9 10 11 12 12 13 13
16 16 17 18 18 18 18 18 18 19 20 21 21 21 22 23 22 20 17 15 14 13 10 6 4 3 3 4 4 5 5 5 4 1 0 1 3 3 4 5 6 7 6 5 3 1 1 1 2 4 5 6 6 6 7 7 8 10 11 12 13 14 15 17 20 22 23 24 20 14 11 9 8 8 8 8 7 8 8 9 10 11 12 12 13
16 17 17 18 17 17 17 17 17 17 18 19 20 21 22 20 17 15 13 10 8 6 4 4 3 3 4 5 5 4 5 4 3 2 1 2 2 3 4 5 6 6 5 4 2 1 0 1 3 4 5 6 7 8 9 10 11 12 13 15 16 16 17 19 21 23 25 24 19 14 10 8 7 7 7 7 7 7 8 9 10 10 11 11 12
Wind_Direction
142 166 181 180 173 166 162 163 164 163 162 162 161 157 159 161 159 157 154 151 153 158 161 158 152 149 143 143 145 145 150 150 148 161 176 187 186 159 107 68 76 75 64 50 48 54 68 96 114 121 129 135 128 123 121 114 117 136 139 137 118 91 64 72 83 61 37 43 33 12 10 19 24 21 17 19 21 23 27 29 30 33 40 44 41
158 171 172 168 163 158 156 158 159 160 161 163 162 159 161 163 163 162 155 149 150 152 158 161 156 151 148 149 150 146 144 139 127 143 176 188 190 186 197 205 130 91 75 59 51 51 53 66 105 129 139 145 139 127 106 84 74 173 166 153 118 86 65 65 65 39 29 33 32 27 26 24 19 13 9 11 17 21 26 30 29 31 38 44 45
166 154 152 151 152 152 151 153 154 157 158 160 161 161 164 166 167 164 154 149 151 150 154 158 156 156 157 155 152 146 136 128 116 115 132 163 182 185 189 197 190 130 99 79 60 52 47 45 69 126 158 163 142 115 90 76 73 94 124 125 104 85 70 60 52 39 33 32 32 29 24 17 10 6 5 9 14 19 24 28 27 27 31 37 44
147 141 141 140 144 146 147 152 156 156 154 156 160 163 166 170 170 163 154 151 154 155 155 157 160 164 165 162 159 151 142 148 144 125 109 97 129 163 170 178 188 180 140 108 78 57 46 35 33 84 174 186 156 123 104 91 84 85 90 90 83 74 64 55 48 39 30 21 18 17 12 8 8 6 3 6 13 19 24 27 26 23 23 24 31
140 138 138 137 140 142 146 151 155 155 154 156 161 165 169 172 170 163 158 157 159 161 159 160 166 171 171 168 164 157 151 157 155 138 118 104 119 153 161 162 170 182 184 171 146 70 47 35 24 35 175 192 173 144 122 102 89 85 81 77 73 66 57 49 37 26 15 3 358 360 1 2 5 9 7 5 10 16 20 25 29 25 18 13 13
140 138 135 135 139 142 146 152 155 155 155 158 162 167 170 171 169 166 166 165 165 169 168 167 171 175 176 176 170 160 147 146 150 145 130 118 119 149 170 171 177 198 220 218 217 219 47 35 20 41 140 182 181 165 153 126 88 78 74 70 68 59 46 35 18 3 355 349 343 343 347 350 354 3 9 6 7 12 12 16 23 23 17 11 9
142 139 137 138 142 146 149 154 157 156 158 161 164 168 170 170 168 167 169 168 169 176 179 177 177 178 180 181 178 167 150 145 149 146 135 120 107 137 180 187 196 212 213 207 215 226 240 16 4 123 140 148 158 154 152 142 78 50 43 26 9 360 347 337 335 336 335 334 331 329 331 336 340 346 356 3 7 10 7 3 6 10 10 7 3
143 141 141 142 145 149 154 157 158 159 161 162 164 168 170 168 165 166 168 167 167 174 181 182 181 182 184 185 186 181 170 167 163 148 132 94 78 122 178 188 189 189 188 190 197 215 231 253 281 228 177 156 149 144 139 129 18 355 347 333 315 296 289 294 306 318 321 322 324 324 323 323 329 334 340 351 357 1 1 353 348 351 356 358 360
143 143 143 144 149 154 157 159 160 162 163 163 167 170 169 165 163 164 166 165 165 172 180 181 181 183 185 187 193 195 191 189 179 155 160 326 6 88 169 185 187 181 178 182 186 202 224 237 251 249 226 205 191 195 224 291 316 320 321 322 314 301 292 290 296 304 308 310 316 322 320 319 324 326 327 337 343 344 349 345 339 341 343 347 356
143 143 144 148 153 156 158 159 160 163 164 167 170 170 167 164 164 166 168 167 167 172 180 183 184 182 181 185 196 203 206 210 211 201 215 290 331 344 180 189 194 193 187 180 187 206 225 235 243 251 250 242 239 251 263 276 297 308 308 308 308 301 294 290 292 298 300 301 306 312 311 313 322 322 318 326 332 332 339 340 337 338 337 339 348
142 142 145 150 154 156 159 160 160 163 167 170 172 171 169 166 166 167 167 168 172 179 186 189 187 185 186 194 205 211 215 221 219 199 187 196 335 326 289 236 209 208 207 201 205 218 231 241 245 250 257 256 256 261 263 266 280 296 300 300 304 301 295 292 292 294 294 295 300 303 299 303 316 322 317 320 326 327 331 333 332 333 332 329 328
140 142 146 151 154 157 161 161 162 166 171 172 173 171 170 169 167 166 168 172 179 186 191 195 195 198 203 207 209 212 218 221 205 185 178 188 334 323 290 259 237 230 228 226 228 229 236 247 250 252 261 268 268 267 266 265 269 278 283 285 288 288 284 285 289 291 292 292 294 296 295 298 309 318 318 317 319 320 322 325 327 328 324 313 301
141 143 147 152 156 161 163 164 165 169 172 172 171 170 169 170 169 170 174 176 180 183 189 197 202 205 206 203 202 207 215 213 198 185 187 199 249 337 306 277 261 250 237 233 238 242 246 252 254 256 264 273 276 275 276 276 274 274 277 277 277 276 273 275 280 283 284 286 286 289 295 297 301 311 318 313 309 311 312 315 320 322 318 310 302
144 148 151 155 160 163 165 166 168 171 171 171 170 170 171 172 172 174 173 170 169 172 175 179 185 188 188 188 193 199 203 201 196 195 200 205 229 328 329 320 309 284 252 241 245 256 262 262 260 264 270 277 282 283 283 285 286 285 285 284 284 285 282 279 279 277 275 277 280 287 295 298 298 306 314 310 304 305 304 306 312 314 312 309 304
146 151 155 159 164 166 168 170 171 172 171 171 172 172 173 174 173 172 170 166 164 163 163 164 169 175 180 186 194 197 196 198 202 207 206 211 242 281 314 330 337 328 291 264 260 265 270 270 269 275 283 286 289 289 287 287 288 287 287 288 290 292 291 289 288 285 283 282 284 289 294 297 298 302 306 306 303 303 301 301 303 304 306 306 302
149 154 160 165 169 171 172 173 173 172 173 174 175 175 175 176 174 171 171 171 168 167 169 173 178 185 191 194 200 205 205 206 213 217 213 220 245 267 291 308 319 330 324 298 279 272 271 272 275 281 286 288 292 292 291 290 288 287 288 290 294 296 297 297 296 294 293 293 294 295 296 298 298 298 301 301 300 301 300 297 297 299 300 300 296
153 159 165 170 174 176 176 176 175 174 175 177 177 178 179 180 178 175 175 176 176 179 181 180 187 197 200 202 204 205 208 214 221 221 218 224 244 263 280 292 301 310 317 316 304 290 280 276 277 281 282 285 291 296 297 296 294 293 294 296 300 301 301 305 306 305 304 303 302 301 301 301 301 300 300 299 298 299 294 288 292 296 293 288 287
158 164 169 173 176 178 179 179 177 176 178 179 180 180 182 185 184 182 182 182 182 185 188 190 197 204 209 215 218 214 213 217 223 227 227 234 249 263 275 283 290 298 305 311 312 308 302 294 289 288 289 290 294 298 299 298 297 298 299 302 303 302 305 311 315 314 312 309 306 305 304 304 305 304 303 302 301 297 286 283 290 291 281 272 273
164 168 171 174 177 179 180 181 180 180 182 183 184 184 185 188 189 187 186 186 185 187 193 200 208 216 223 229 231 235 235 230 233 241 246 251 259 266 272 277 283 292 300 306 309 309 307 305 303 301 301 301 301 301 299 297 296 296 299 301 299 300 306 313 313 311 311 309 308 307 306 306 307 306 305 304 303 297 287 283 286 279 269 267 268
170 172 172 174 176 179 182 183 184 185 186 188 189 189 188 189 188 186 186 186 186 189 196 207 218 223 224 226 230 238 239 235 239 246 251 256 259 266 273 277 283 290 295 300 305 307 305 302 301 301 302 302 301 299 298 296 296 296 297 296 295 299 306 308 307 307 307 306 305 305 306 307 308 308 308 308 307 305 300 296 289 275 265 265 264
174 175 175 175 177 181 184 187 189 190 192 194 193 190 189 187 186 185 186 187 189 192 194 196 194 193 190 185 187 201 216 231 239 245 252 258 264 272 279 282 287 292 294 297 300 302 300 298 297 296 297 296 295 294 292 292 293 293 294 294 295 299 303 303 303 303 302 301 302 303 304 306 308 309 311 311 314 316 316 314 305 287 271 265 262
179 179 179 178 179 181 184 188 190 191 195 198 196 193 192 191 189 189 190 190 190 191 192 188 184 189 195 190 183 191 204 232 249 254 262 271 280 286 286 286 288 290 292 295 297 297 296 296 297 297 298 296 293 291 291 292 294 295 296 297 298 299 300 300 300 299 298 299 301 301 302 305 308 309 310 311 316 320 319 315 308 295 281 272 267
184 184 184 184 184 185 186 187 188 188 190 193 195 196 196 196 195 195 194 192 191 191 193 195 196 205 218 225 230 238 244 251 262 270 276 283 291 293 289 286 286 286 288 291 293 294 295 297 298 300 300 297 293 292 293 296 300 302 302 302 300 299 298 297 296 297 298 299 299 299 302 306 307 309 312 314 317 318 316 313 310 301 288 279 273
188 188 189 191 190 189 189 189 188 188 187 188 192 194 196 197 198 198 197 195 195 196 199 204 208 211 218 225 233 241 246 252 262 271 278 283 286 286 286 285 283 283 284 288 291 293 296 298 300 301 300 296 294 294 296 300 304 307 308 307 305 303 301 300 301 301 299 297 297 298 302 307 308 310 313 315 315 314 313 313 312 308 300 289 280
191 192 193 194 193 192 191 191 191 192 192 192 194 195 197 199 200 201 202 201 203 205 209 215 222 227 229 230 233 237 243 251 260 267 277 282 281 279 281 285 285 280 279 283 288 292 295 298 299 299 297 295 295 297 300 304 307 310 311 311 310 310 309 308 307 303 297 295 297 298 302 308 311 312 313 314 312 311 313 313 312 310 306 299 291
193 193 194 194 194 193 193 193 194 196 198 201 202 202 205 208 209 211 213 215 217 219 221 224 228 231 234 236 241 245 249 255 262 268 276 280 278 275 278 288 294 292 289 291 295 297 299 299 298 297 297 298 299 301 303 306 309 310 313 315 315 315 315 312 308 302 296 296 298 299 303 309 312 312 313 312 311 311 313 313 311 309 307 304 297
192 192 192 192 193 194 196 196 197 199 201 204 208 210 214 219 222 224 227 228 227 226 226 226 226 229 235 242 247 251 255 260 266 270 275 278 277 276 282 290 298 302 303 303 302 300 299 298 297 297 299 300 302 303 304 306 310 314 318 320 319 319 318 314 309 303 298 298 298 300 305 311 312 312 313 313 311 312 315 313 308 307 308 306 296
193 193 193 193 195 197 199 201 200 200 202 207 212 217 222 226 230 235 239 239 236 232 229 228 228 232 240 246 250 253 258 262 265 269 275 279 279 284 292 297 300 301 300 298 295 295 296 298 299 301 302 303 304 306 308 312 317 321 324 324 323 322 321 319 314 309 306 305 303 304 308 311 313 315 316 314 312 314 318 316 307 304 305 301 287
196 196 196 198 200 202 203 205 205 204 206 211 217 223 230 235 239 244 248 247 243 238 235 235 238 244 249 251 253 256 259 262 265 271 278 281 283 290 296 299 300 300 298 293 291 293 297 300 301 303 304 305 307 310 314 320 324 325 325 325 326 326 327 327 323 319 317 314 309 308 310 312 313 314 313 310 309 313 319 318 312 306 302 292 278
197 199 201 203 205 205 204 206 209 210 213 218 223 230 236 241 244 248 251 251 248 247 246 247 249 253 256 255 255 256 261 267 272 277 279 280 283 289 293 296 297 297 295 292 290 292 295 297 299 301 303 305 308 313 318 322 323 324 327 329 330 331 332 330 327 324 322 319 313 310 310 309 307 306 306 305 308 314 320 319 315 309 299 285 276
199 201 205 207 207 206 206 208 211 214 218 223 229 235 240 243 244 246 249 251 250 249 250 252 255 258 259 262 263 265 269 272 275 275 276 278 283 287 290 293 294 293 293 291 289 289 291 291 294 297 301 304 308 312 316 319 321 324 329 329 329 330 329 326 325 321 316 313 313 312 310 308 306 306 306 305 307 311 316 317 315 308 298 289 282
203 204 208 210 208 208 209 209 211 216 221 226 231 236 240 244 245 246 247 249 252 254 255 257 259 261 263 267 271 273 273 273 272 274 278 281 286 289 292 294 295 294 294 291 288 288 288 287 289 296 300 302 307 313 318 321 324 327 328 326 325 325 322 320 320 318 313 312 313 311 308 309 311 312 312 311 311 311 312 313 311 307 302 297 290
209 209 211 211 208 207 209 210 211 217 224 227 229 231 235 241 247 250 251 252 256 260 261 262 264 265 266 268 270 272 273 275 276 279 282 285 288 291 292 294 295 294 293 289 285 286 287 286 289 295 300 304 312 320 325 326 326 323 320 320 321 317 310 307 311 316 315 312 310 307 307 313 320 320 318 319 319 317 314 311 310 307 303 298 291
214 214 215 213 208 207 209 211 213 219 225 228 228 230 235 241 247 253 258 262 268 270 269 267 268 270 271 272 272 274 276 279 282 285 287 289 291 291 292 293 292 290 288 285 282 283 286 287 290 297 306 314 321 324 323 322 321 317 315 317 318 315 310 309 319 326 324 321 322 327 335 340 340 337 333 328 324 322 320 317 314 311 309 305 301
216 217 218 218 214 211 212 214 216 220 227 230 230 233 238 243 247 253 260 267 274 279 281 280 277 277 279 279 278 279 283 287 291 294 295 295 294 291 290 288 286 286 286 284 283 285 287 290 296 304 313 319 322 322 319 318 320 321 322 323 325 327 333 348 354 344 342 352 2 5 3 357 352 349 347 340 333 329 327 324 321 318 316 314 311
217 217 217 219 219 217 215 217 220 224 230 234 237 240 242 245 250 256 261 266 271 276 282 284 281 280 281 280 279 284 291 295 298 300 300 299 297 293 288 284 283 285 285 285 286 287 288 294 302 309 316 324 328 330 331 328 325 328 334 340 352 10 21 22 14 2 359 3 4 2 359 356 352 349 347 343 339 336 333 329 326 323 321 318 315
217 218 216 218 220 220 218 218 222 225 230 237 243 246 247 250 255 259 263 265 268 272 278 281 281 281 281 281 284 290 296 298 300 300 301 302 302 300 294 288 286 286 286 286 286 286 286 292 302 309 321 333 338 338 335 324 315 326 344 352 3 17 23 22 19 13 6 359 355 352 350 347 344 340 336 334 332 331 331 330 328 325 322 321 319
220 222 221 220 221 221 219 220 223 226 231 238 243 246 249 253 257 259 261 265 269 272 274 276 277 278 281 285 290 294 297 297 297 298 301 305 307 307 303 296 289 286 287 288 285 282 283 292 303 313 320 323 322 322 314 296 294 331 345 348 360 15 17 12 6 2 357 351 348 347 343 339 336 333 330 327 324 323 323 324 323 322 322 322 321
219 221 222 221 221 221 221 223 225 229 235 239 242 244 249 252 255 259 263 268 270 270 269 269 270 272 278 285 291 294 295 295 296 299 304 308 309 308 304 294 285 282 284 284 281 283 289 298 302 300 292 291 301 305 295 288 328 349 351 1 11 8 1 355 352 351 349 346 344 343 341 338 336 332 329 328 325 323 321 319 316 316 317 316 317
215 217 218 217 217 220 222 225 230 234 237 239 242 245 249 252 255 260 266 269 269 266 264 265 267 271 277 285 291 293 293 294 298 304 307 307 307 306 300 290 283 284 288 289 288 290 291 289 281 271 268 278 294 294 286 309 336 348 5 17 13 4 357 353 349 346 344 342 342 342 341 341 339 335 332 331 328 324 321 318 314 311 310 310 313
214 215 217 217 219 223 226 231 235 237 239 242 245 248 250 254 257 261 265 265 265 264 265 266 270 276 283 290 294 294 293 296 302 305 305 304 304 302 294 284 281 284 285 283 283 280 272 263 257 256 257 267 277 278 290 309 323 13 38 27 18 9 1 354 351 348 346 344 343 342 342 342 341 338 335 333 329 325 322 319 316 313 311 311 314
215 218 221 222 224 226 228 230 233 236 240 244 247 250 253 256 257 259 260 261 262 264 266 270 276 284 290 295 298 299 299 301 303 303 303 303 300 290 275 272 274 274 276 278 277 271 260 248 245 258 272 269 262 265 282 293 147 69 45 28 16 7 1 358 359 359 355 350 346 344 343 342 340 338 334 330 327 325 324 323 321 319 316 316 317
214 218 221 223 224 225 228 230 234 239 243 247 252 255 256 256 256 256 257 260 264 268 272 277 284 291 294 297 299 301 302 303 304 304 303 298 282 255 254 269 272 268 267 269 266 263 260 254 267 293 287 255 221 201 161 108 70 41 23 12 5 4 7 11 10 4 358 354 350 347 346 345 343 340 335 329 325 325 324 323 323 323 321 320 321
215 217 220 224 229 233 237 240 244 247 251 255 258 259 257 255 256 256 257 260 266 272 276 281 287 292 294 296 300 303 305 307 308 306 296 278 248 226 235 252 256 248 233 223 224 272 320 329 327 311 247 189 162 134 91 42 23 11 3 2 9 17 20 16 9 3 358 353 349 346 344 343 341 340 336 329 325 324 323 322 323 324 324 324 323
218 219 221 226 232 237 242 246 249 254 257 258 259 260 261 260 261 261 262 264 268 273 278 283 287 291 294 299 303 307 307 306 303 289 269 259 247 223 216 218 212 191 169 141 354 342 336 332 324 275 178 158 139 108 37 8 1 358 1 11 21 21 15 6 360 357 354 349 345 342 339 337 338 338 335 329 324 323 322 323 323 322 323 324 322
229 230 232 236 238 240 245 249 253 257 260 261 263 268 271 270 269 269 268 270 274 278 282 285 288 291 295 300 302 302 300 292 274 251 242 240 236 213 185 169 154 138 83 5 357 351 346 343 318 163 150 134 111 60 18 7 2 360 6 14 13 7 1 355 350 349 347 345 342 338 334 332 334 335 333 328 324 321 321 322 322 321 320 321 320
243 246 247 247 247 248 251 254 257 259 262 265 269 273 275 276 277 277 279 280 282 283 283 285 288 290 292 294 293 291 282 262 244 233 220 209 198 178 147 118 79 43 29 26 24 22 19 29 128 136 124 92 49 20 7 3 2 1 2 2 356 350 347 344 340 339 341 341 339 335 330 327 328 331 331 329 324 321 320 320 320 320 319 320 320
250 253 254 253 251 251 253 256 259 262 265 269 273 275 277 280 283 286 287 287 285 283 283 284 284 283 283 282 275 260 243 234 229 217 191 168 151 124 92 68 52 46 41 33 24 19 19 41 108 99 50 16 7 2 358 356 356 353 347 341 337 335 334 333 333 333 335 337 337 333 326 321 321 326 328 325 319 316 317 317 319 322 322 321 322
256 256 256 255 255 255 257 259 262 266 270 273 275 278 281 285 286 288 289 289 287 285 284 280 273 267 261 248 227 216 209 198 184 169 134 84 78 74 65 56 47 35 24 17 14 12 8 360 355 356 355 354 354 354 352 346 339 332 326 325 325 324 323 324 326 328 330 334 338 336 328 321 321 325 328 325 318 316 318 319 320 323 324 323 323
260 261 261 260 261 264 265 264 265 269 272 275 278 281 285 286 287 290 292 291 287 283 276 261 245 245 234 208 192 183 165 141 126 125 21 48 65 61 45 32 21 11 7 13 21 16 321 316 328 335 341 343 343 340 335 326 317 314 313 315 317 318 316 317 321 324 328 333 339 341 333 324 322 324 326 325 320 319 322 324 324 323 323 323 324
263 267 267 265 265 267 267 267 268 271 273 276 279 282 285 287 291 295 295 289 281 269 228 170 168 215 206 172 153 146 140 134 139 169 163 124 91 53 27 15 11 13 23 43 72 102 243 298 320 327 328 327 323 319 315 310 308 306 306 309 313 313 312 313 318 322 327 333 339 341 332 321 317 319 321 322 321 321 322 324 325 325 323 322 323